THORAD DELTA 1 DEB, 17023

Orbit data source: Space-Track

THORAD DELTA 1 DEB, 17023 is space debris in SSO originally from a launch on Fri, 15 Nov 1974 UTC launched from the Air Force Western Test Range (AFWTR). Debris objects in space refer to the collection of defunct objects orbiting the Earth. Examples of debris include non-operational satellites, rocket bodies, and fragments generated from explosions, collisions, or faulty payload assembly.

Loading next visibility...
Identifier
17023, 1974-089EW
Orbit
SSO
Country
Flag of USUS
Related business
Manufacturer
Unknown
Mission
Spacecraft
Bus & Motor
Unknown
Mass
Unknown
Launch date (UTC)
1974-11-15 (51 years ago)
Launch vehicle
Unknown
Launch site
Air Force Western Test Range (AFWTR)
Object type
Payload
Rocket body
Debris
Shape & HBR
Unknown shape, 0.1 m
Radar Cross Section
Small (<0.1 m²)

Expand to show TLE details & history
Last TLE update: 3 days ago

TLE from 3 days ago
0 THORAD DELTA 1 DEB
1 17023U 74089EW  26046.37024449  .00000111  00000-0  84009-3 0  9999
2 17023 101.4954  14.2337 0051994 160.0854   0.5078 12.64642998893305
Epoch: 2026-02-15T08:53Z
TLE epoch observation values (Epoch: 2026-02-15T08:53:09.123Z)
Latitude
18.99729°
Longitude
-80.43939°
Altitude
1,365.507 km
Speed
7.196 km/s
True Right ascension
13h 12m 54s
True Declination
18° 53' 60"
Sunlit
Object was in full shadow at epoch
Visualization orbit readout
Latitude
Unknown
Longitude
Unknown
Altitude
Unknown
Speed
Unknown
Apparent Right ascension
Unknown
Apparent Declination
Unknown
Sunlit
N/A
Visualization observer readout
Local Sidereal Time
06:44:12
Azimuth
Unknown
Elevation
Unknown
Doppler factor
Unknown
Orbital elements
Apogee altitude
1,441.8 km
Perigee altitude
1,360.903 km
Semi-major axis
7,779.489 km
Eccentricity
0.0052
Inclination
101.4954°
RAAN
14.2337°
Arg. of periapsis
160.0854°
True anomaly
0.51311°
Mean anomaly
0.5078°
Eccentric anomaly
0.51045°
Mean motion
3.16313 °/min
Orbital period
113.81 mins
BSTAR
0.00084009
Loading maneuver chart data...
Computing Atmospheric mass density...

Documentation

Showing up to 5 results
|